K4FDS Weather Reports


time (UTC)temp
C
wind
direction
speed
KPH
gust
KPH
rain 1hr
cm
rain 24hr
cm
rain mn
cm
humidity
%
barometer
mb
20260510151933 22 218 1.6 4.8 0.00 0.00 0.00 55 1010.0
20260510144933 22 218 1.6 4.8 0.00 0.00 0.00 55 1010.0
20260510141933 22 136 1.6 4.8 0.00 0.00 0.00 56 1009.8
20260510134933 17 281 0.0 3.2 0.00 0.00 0.00 71 1010.4
20260510131933 17 281 0.0 3.2 0.00 0.00 0.00 71 1010.4
20260510124933 8 15 0.0 1.6 0.00 0.00 0.00 96 1011.1
20260510121933 8 15 0.0 1.6 0.00 0.00 0.00 96 1011.1
20260510114933 8 15 0.0 1.6 0.00 0.00 0.00 96 1011.1
20260510111932 8 108 0.0 1.6 0.00 0.00 0.00 94 1009.8
20260510104932 8 108 0.0 1.6 0.00 0.00 0.00 94 1009.8
20260510101932 8 108 0.0 1.6 0.00 0.00 0.00 94 1009.8
20260510094932 8 108 0.0 1.6 0.00 0.00 0.00 94 1009.8
20260510091932 9 25 0.0 1.6 0.00 0.00 0.00 90 1009.1
20260510084932 9 25 0.0 1.6 0.00 0.00 0.00 90 1009.1
20260510081932 9 25 0.0 1.6 0.00 0.00 0.00 90 1009.1
20260510074932 9 25 0.0 1.6 0.00 0.00 0.00 90 1009.1
20260510071932 10 333 0.0 1.6 0.00 0.00 0.00 87 1009.0
20260510064932 10 333 0.0 1.6 0.00 0.00 0.00 87 1009.0
20260510061932 11 324 0.0 1.6 0.00 0.00 0.00 82 1009.0
20260510054932 11 324 0.0 1.6 0.00 0.00 0.00 82 1009.0
20260510051932 12 351 0.0 1.6 0.00 0.00 0.00 77 1008.7
20260510044932 12 351 0.0 1.6 0.00 0.00 0.00 77 1008.7
20260510041932 13 44 0.0 3.2 0.00 0.00 0.00 70 1008.0
20260510034932 13 44 0.0 3.2 0.00 0.00 0.00 70 1008.0
20260510031932 17 257 1.6 3.2 0.00 0.00 0.00 58 1006.1
20260510024932 17 257 1.6 3.2 0.00 0.00 0.00 58 1006.1
20260510021932 17 257 1.6 3.2 0.00 0.00 0.00 58 1006.1
20260510014932 17 257 1.6 3.2 0.00 0.00 0.00 58 1006.1
20260510011932 17 314 0.0 1.6 0.00 0.00 0.00 57 1005.9
20260510004932 18 331 0.0 1.6 0.00 0.00 0.00 56 1005.8
20260510001932 20 326 0.0 1.6 0.00 0.00 0.00 49 1005.2
20260509234932 21 336 0.0 3.2 0.00 0.00 0.00 45 1004.3
20260509231932 21 317 0.0 3.2 0.00 0.00 0.00 45 1004.2
20260509224932 23 328 0.0 3.2 0.00 0.00 0.00 47 1003.6
20260509221932 23 328 0.0 3.2 0.00 0.00 0.00 47 1003.6
20260509214932 23 249 3.2 4.8 0.00 0.00 0.00 42 1003.3
20260509211932 25 253 1.6 11.3 0.00 0.00 0.00 41 1002.9
20260509204932 25 253 1.6 11.3 0.00 0.00 0.00 41 1002.9
20260509201932 25 253 1.6 11.3 0.00 0.00 0.00 41 1002.9
20260509194932 25 253 1.6 11.3 0.00 0.00 0.00 41 1002.9
20260509191932 25 253 1.6 11.3 0.00 0.00 0.00 41 1002.9
20260509184932 23 269 1.6 4.8 0.00 0.00 0.00 42 1003.2
20260509181932 23 263 1.6 6.4 0.00 0.00 0.00 43 1003.5
20260509174932 23 193 3.2 9.7 0.00 0.00 0.00 49 1004.1
20260509171932 16 321 0.0 3.2 0.00 0.00 0.00 66 1006.4
20260509164932 16 321 0.0 3.2 0.00 0.00 0.00 66 1006.4
20260509161932 16 321 0.0 3.2 0.00 0.00 0.00 66 1006.4
20260509154932 16 321 0.0 3.2 0.00 0.00 0.00 66 1006.4